www.pogodaiklimat.ru

Погода и климат >> Архив погоды >> Ирак >> Rifai


ПОГОДА в Rifai

  • Прогноз погоды в Rifai
  • Монитор погоды в Rifai
  • Климат города

АРХИВ ПОГОДЫ в Rifai

Время (UTC), дата Ветер
(напр.,м/с)
 
Видим.   Явления Облачность Т
(С)
Тd
(С)
f
(%)
Тe
(С)
Тes
(С)
Комфортность P
(гПа)
Po
(гПа)
Тmin
(С)
Tmax
(С)
R
(мм)
R24
(мм)
S
(см)
09 13.06 СЗ 2 8000 м пыль ясно +40.0 +5.4 12 +37 +59 опасность
солнечного
удара
999.4 999.0
12 13.06 ЮЗ 2 8000 м пыль ясно +42.8 +6.3 11 +40 +53 опасность
солнечного
удара
1008.0 1008.0
18 13.06 штиль 0 10 км ясно +36.4 +10.7 21 +35 +35 очень
жарко
1007.4 1007.0 +43.2
21 13.06 штиль 0 10 км ясно +33.2 +11.5 27 +33 +33 жарко 1007.4 1007.0
00 14.06 ЮЗ 2 10 км ясно +32.4 +7.9 22 +31 +31 жарко 1007.9 1008.0
06 14.06 СЗ 5 6000 м пыль ясно +35.6 +10.9 22 +35 +42 очень
жарко
1000.1 1000.0 +29.4
09 14.06 СЗ 6 5000 м пыль ясно +40.2 +6.6 13 +38 +46 очень
жарко
1000.7 1001.0
12 14.06 СЗ 3 8000 м пыль ясно +41.2 +5.4 11 +38 +49 очень
жарко
1000.0 1000.0
15 14.06 СЗ 2 10 км ясно +40.0 +6.8 13 +37 +38 очень
жарко
999.8 1000.0
18 14.06 штиль 0 10 км ясно +36.4 +10.1 20 +35 +35 очень
жарко
1001.3 1001.0 +41.8
21 14.06 штиль 0 10 км ясно +32.6 +13.5 31 +34 +34 очень
жарко
1002.3 1002.0
00 15.06 штиль 0 10 км ясно +30.0 +10.9 31 +30 +30 жарко 1001.4 1001.0
03 15.06 штиль 0 10 км ясно +28.4 +9.9 32 1002.5 1002.5
06 15.06 СЗ 4 8000 м пыль ясно +36.6 +12.1 23 +36 +45 очень
жарко
1003.7 1004.0 +28.3
09 15.06 СЗ 5 6000 м пыль ясно +40.6 +7.8 14 +38 +50 очень
жарко
1003.0 1003.0
12 15.06 СЗ 5 6000 м пыль ясно +41.0 +9.6 15 +39 +46 очень
жарко
1002.5 1003.0
15 15.06 СЗ 5 5000 м пыль ясно +39.2 +6.4 14 +37 +37 очень
жарко
1002.4 1002.0
21 15.06 С 2 10 км ясно +33.0 +10.6 25 +32 +32 жарко 1003.0 1003.0
03 16.06 З 2 10 км ясно +27.0 +11.2 37 +28 +29 жарко 1003.1 1003.0
21 16.06 СЗ 3 10 км ясно +33.4 +8.0 21 +32 +32 жарко 1003.6 1004.0
00 17.06 СЗ 2 10 км ясно +30.2 +10.7 30 +30 +30 жарко 1003.3 1003.0
03 17.06 СЗ 2 10 км ясно +28.0 +10.8 34 +29 +30 жарко 1002.9 1003.0
06 17.06 СЗ 5 8000 м пыль ясно +37.0 +6.4 15 +34 +41 очень
жарко
1003.7 1004.0 +27.0
09 17.06 З 9 5000 м пыль ясно +41.4 +5.1 11 +38 +41 очень
жарко
1003.1 1003.0
12 17.06 СЗ 10 5000 м пыльный позёмок ясно +43.0 +5.3 10 +40 +41 очень
жарко
1001.7 1002.0
15 17.06 СЗ 9 8000 м пыльный позёмок ясно +41.8 +6.8 12 +39 +39 очень
жарко
1001.4 1001.0
18 17.06 З 4 10 км ясно +36.4 +8.3 18 +35 +35 очень
жарко
1002.1 1002.0 +43.2
21 17.06 СЗ 2 10 км ясно +33.4 +9.2 23 +32 +32 жарко 1001.9 1002.0
00 18.06 З 2 10 км ясно +31.0 +11.0 29 +31 +31 жарко 1001.2 1001.0
03 18.06 СЗ 2 10 км ясно +30.0 +11.9 33 +31 +32 жарко 1001.3 1001.0
06 18.06 СЗ 2 18 км пыль ясно +39.0 +9.8 17 +37 +51 опасность
солнечного
удара
1001.5 1002.0 +29.6
09 18.06 З 4 8000 м пыль ясно +43.6 +6.1 11 +41 +56 опасность
перегрева
1001.1 1001.0
12 18.06 СЗ 6 8000 м пыль ясно +44.4 +7.3 11 +42 +47 опасность
перегрева
1000.6 1001.0
18 18.06 СЗ 4 8000 м пыль ясно +35.8 +11.2 23 +35 +35 очень
жарко
1001.7 1002.0 +44.8
21 18.06 З 4 10 км ясно +33.0 +10.6 25 +32 +32 жарко 1002.1 1002.0
00 19.06 СЗ 4 10 км ясно +31.6 +9.3 25 +31 +31 жарко 1002.5 1003.0
03 19.06 СЗ 4 10 км ясно +31.0 +9.9 27 +31 +31 жарко 1003.1 1003.0
06 19.06 СЗ 3 10 км ясно +37.4 +5.1 14 +35 +46 очень
жарко
1004.3 1004.0 +30.4
12 19.06 СЗ 4 10 км ясно +41.6 +7.7 13 +39 +48 очень
жарко
1004.3 1004.0
15 19.06 СЗ 3 10 км ясно +40.2 +5.9 12 +37 +38 очень
жарко
1003.9 1004.0
18 19.06 штиль 0 10 км ясно +35.6 +8.0 18 +34 +34 очень
жарко
1004.9 1005.0 +42.0
03 20.06 штиль 0 10 км ясно +29.6 +10.3 30 +30 +31 жарко 1005.1 1005.0
06 20.06 С 4 10 км ясно +38.0 +9.7 18 +36 +45 очень
жарко
1005.8 1006.0 +29.6

 

Местоположение метеостанции Rifai (Ирак): широта 31.72 долгота 46.10 высота над уровнем моря 6 м.

В архиве по умолчанию представлена погода в Rifai за последнюю неделю. Архивные данные за месяц целиком и за предыдущие месяцы, начиная с января 2011 года, Вы можете получить, выбрав интересующий диапазон дат из раскрывающегося списка и нажав кнопку "Ввод!".


*Определитесь, кто Вы:
робот инопланетянин человек

Внимание! Время в таблицах - всемирное. Для получения местного времени необходимо прибавить поправку, которая в Rifai равна 3 ч.

Смотрите также архив погоды в соседних городах и на ближайших метеорологических станциях:

Погода в Kut-Al-Hai (Ирак) (50 км)
Погода в Nasiriya (Ирак) (72 км)
Погода в Samawah (Ирак) (92 км)
Погода в Ubaydah Bin Al Jarrah (Ирак) (92 км)
Погода в Ali Al-Gharbi (Ирак) (102 км)
Погода в Amarah (Ирак) (102 км)
Погода в Diwaniya (Ирак) (110 км)
Погода в Badrah (Ирак) (154 км)
Погода в Azizyah (Ирак) (165 км)
Погода в Najaf (Ирак) (171 км)

Пояснения к столбцам:

Ветер - указаны скорость ветра в м/с - средняя за 10 мин, порывы в срок и между сроками (в фигурных скобках) и направление, откуда дует ветер: С - северный, СВ - северо-восточный, В - восточный, ЮВ - юго-восточный, Ю - южный, ЮЗ - юго-западный, З - западный, СЗ - северо-западный.
Видимость - горизонтальная дальность видимости в метрах или километрах. При видимости от 1 до 10 км при отсутствии осадков обычно наблюдается дымка, при ухудшении видимости до 1 км и менее - туман. В сухую погоду видимость может ухудшаться дымом, пылью или мглою.
Явления - указаны атмосферные явления, наблюдавшиеся в срок или в последний час перед сроком; фигурными скобками обозначены явления, наблюдавшиеся между сроками (за 1-3 часа до срока); квадратными скобками обозначены град или гололедные отложения с указанием их диаметра в мм.
Облачность - указаны через наклонную черту общая и нижняя облачность в баллах и высота нижней границы облаков в метрах; квадратными скобками обозначены формы облаков: Ci - перистые, Cs - перисто-слоистые, Cc - перисто-кучевые, Ac - высококучевые, As - высокослоистые, Sc - слоисто-кучевые, Ns - слоисто-дождевые, Cu - кучевые, Cb - кучево-дождевые. Подробнее классификацию облаков см. в Атласе облаков (PDF).
T - Температура воздуха - температура, измеренная на высоте 2 м над землей.
Td - Температура точки росы - температура, при понижении до которой содержащийся в воздухе водяной пар достигнет насыщения.
f - Относительная влажность воздуха - влажноcть воздуха, измеренная на высоте 2 м над землей.
Te - Эффективная температура - температура, которую ощущает одетый по сезону человек в тени. Характеристика душности погоды. При расчете учитывается влияние влажности воздуха и скорости ветра на теплоощущения человека.
Tes - Эффективная температура на солнце - температура, которую ощущает человек, с поправкой на солнечный нагрев. Характеристика знойности погоды. Зависит от высоты солнца над горизонтом, облачности и скорости ветра. Ночью, в пасмурную погоду, а также при ветре 12 м/с и более поправка равна нулю.
P - Атмосферное давление - приведенное к уровню моря атмосферное давление.
Po - Атмосферное давление - измеренное на уровне метеостанции атмосферное давление.
Tmin - Минимальная температура - минимум температуры воздуха на высоте 2 м над землей.
Tmax - Максимальная температура - максимум температуры воздуха на высоте 2 м над землей.
R - Количество осадков - Количество выпавших осадков за период времени, мм. При наведении курсора мыши на число - период времени, за который выпало указанное количество осадков.
R24 - Количество осадков - Количество выпавших осадков за 24 часа, мм.
S - Снежный покров - Высота снежного покрова, см. При наведении курсора мыши на число - состояние снежного покрова и степень покрытия местности в баллах.